HULIANGWANG DIGUI-08 (62330 NORAD) Tracking and Keplerian Element Data

This shows tracking and keplerian element data for the satellite.

Feedback or suggestion? Click here.




ElementValue
Catalog62330
NameHULIANGWANG DIGUI-08
Epoch Orbit661
Epoch Day34.84236312
Epoch Year2025
RAAN151.7828
Inclination86.5085
Eccentricity0.0011605
Argument of Perigee150.2365
Mean Anonmoly209.9439
Mean Motion13.37558548
Decay Rate1.03E-06
L11 62330U 24240H 25034.84236312 .00000103 00000+0 16743-3 0 9996
L22 62330 86.5085 151.7828 0011605 150.2365 209.9439 13.37558548 6613



Live tracking and technical data element details for HULIANGWANG DIGUI-08 (NORAD 62330). HULIANGWANG DIGUI-08 can be tracked NOW for your location showing map with azimuth and elevation plus other details from your city location.







IsCatalogInMostPopularTable: catalog: 62330, numindb: 11
Update: records affected: 1



GetName: 62330 HULIANGWANG DIGUI-08

Hit Count: updated at: Sun, 18 May 2025 22:59:18 GMT